Location: Bastogne Gables
(35.1554°N, 78.9900°W)
Time: 22:02:12
(UTC+00:00)

Okean-O - Pass Details

Date: 29 October 2020
Orbit: 638 x 641 km, 98.2° (Epoch: 25 November)

Event Time Altitude Azimuth Distance (km) Brightness Sun altitude
Rises 22:50:07 0° 128° (SE) 2,934 5.6 -6.0°
Reaches altitude 10° 22:52:55 10° 109° (ESE) 2,029 4.7 -6.6°
Maximum altitude 22:55:50 18° 67° (ENE) 1,592 4.1 -7.2°
Drops below altitude 10° 22:58:45 10° 26° (NNE) 2,037 4.9 -7.7°
Sets 23:01:34 0° 7° (N) 2,950 5.9 -8.3°
